Janesville, WI

3:04 PM CST on November 23, 2017 (GMT -0600)
Rock County

Weather History for KJVL - February, 2014

Change the Weather History Date:

Tuesday, February 4, 2014

  Actual Average Record
Temperature  
Mean Temperature 10 °F -  
Max Temperature 19 °F 30 °F 53 °F (1992)
Min Temperature 0 °F 16 °F -14 °F (2007)
Degree Days  
Heating Degree Days 56    
Moisture  
Dew Point 5 °F    
Average Humidity 72    
Maximum Humidity 85    
Minimum Humidity 63    
Precipitation  
Precipitation 0.00 in - - ()
Sea Level Pressure  
Sea Level Pressure 30.29 in    
Wind  
Wind Speed 3 mph (NNE)    
Max Wind Speed 14 mph    
Max Gust Speed 20 mph    
Visibility 9 miles    
Events Snow    
Averages and records for this station are not official NWS values.
T = Trace of Precipitation, MM = Missing Value Source: NWS Daily Summary

Daily Weather History Graph

Daily Weather History Graph

Search for Another Location

Airport or City:

Trip Planner

Search our weather history database for the weather conditions in past years. The results will help you decide how hot, cold, wet, or windy it might be!

Date:

Astronomy

Feb. 04, 2014 Rise Set
Actual Time 7:07 AM CST 5:13 PM CST
Civil Twilight 6:37 AM CST 5:43 PM CST
Nautical Twilight 6:03 AM CST 6:17 PM CST
Astronomical Twilight 5:30 AM CST 6:49 PM CST
Moon 9:36 AM CST (2/4) 11:16 PM CST (2/4)
Length of Visible Light 11h 06m
Length of Day
10h 06m
Waxing Crescent, 29% of the Moon is Illuminated
Feb 4
Waxing Crescent
Feb 6
First Quarter
Feb 14
Full
Feb 22
Last Quarter
Mar 1
New

Hourly Weather History & Observations

Time (CST) Temp. Windchill Dew Point Humidity Pressure Visibility Wind Dir Wind Speed Gust Speed Precip Events Conditions
12:15 AM 5.0 °F - -4.0 °F 66% 30.36 in 10.0 mi Calm Calm - N/A   Clear
12:35 AM 5.0 °F - -2.2 °F 72% 30.36 in 10.0 mi Calm Calm - N/A   Clear
12:55 AM 5.0 °F - -2.2 °F 72% 30.36 in 10.0 mi Calm Calm - N/A   Clear
1:15 AM 5.0 °F - -2.2 °F 72% 30.37 in 10.0 mi Calm Calm - N/A   Mostly Cloudy
1:35 AM 5.0 °F - -4.0 °F 66% 30.37 in 10.0 mi Calm Calm - N/A   Mostly Cloudy
1:55 AM 5.0 °F - -2.2 °F 72% 30.37 in 10.0 mi Calm Calm - N/A   Scattered Clouds
2:15 AM 5.0 °F - -2.2 °F 72% 30.36 in 10.0 mi Calm Calm - N/A   Overcast
2:35 AM 5.0 °F - -0.4 °F 78% 30.36 in 10.0 mi Calm Calm - N/A   Mostly Cloudy
2:55 AM 5.0 °F - -0.4 °F 78% 30.36 in 10.0 mi Calm Calm - N/A   Scattered Clouds
3:15 AM 5.0 °F - -4.0 °F 66% 30.37 in 10.0 mi Calm Calm - N/A   Clear
3:35 AM 5.0 °F -4.1 °F -2.2 °F 72% 30.37 in 10.0 mi SSE 4.6 mph - N/A   Clear
3:55 AM 5.0 °F - -0.4 °F 78% 30.38 in 10.0 mi Calm Calm - N/A   Clear
4:15 AM 5.0 °F - -2.2 °F 72% 30.38 in 10.0 mi Calm Calm - N/A   Clear
4:35 AM 5.0 °F - -0.4 °F 78% 30.38 in 10.0 mi Calm Calm - N/A   Clear
5:45 AM 1.4 °F - -2.2 °F 85% 30.37 in 10.0 mi Calm Calm - N/A   Clear
6:45 AM -0.4 °F - -5.8 °F 78% 30.38 in 7.0 mi Calm Calm - N/A   Clear
7:45 AM 1.4 °F - -4.0 °F 78% 30.39 in 10.0 mi Calm Calm - N/A   Clear
8:45 AM 5.0 °F - -2.2 °F 72% 30.39 in 10.0 mi Calm Calm - N/A   Clear
9:45 AM - - - N/A% 30.39 in 10.0 mi Calm Calm - N/A   Clear
10:45 AM 15.8 °F 10.2 °F 10.4 °F 79% 30.37 in 10.0 mi ENE 3.5 mph - N/A   Overcast
11:45 AM 17.6 °F 12.3 °F 6.8 °F 63% 30.35 in 10.0 mi NE 3.5 mph - N/A   Overcast
12:45 PM 19.4 °F 11.5 °F 8.6 °F 63% 30.31 in 10.0 mi ENE 5.8 mph - N/A   Overcast
1:45 PM 19.4 °F 11.5 °F 8.6 °F 63% 30.29 in 10.0 mi ENE 5.8 mph - N/A   Overcast
2:45 PM 19.4 °F 14.3 °F 8.6 °F 63% 30.30 in 7.0 mi North 3.5 mph - N/A   Overcast
3:45 PM 19.4 °F 10.4 °F 8.6 °F 63% 30.25 in 7.0 mi North 6.9 mph - N/A   Overcast
4:45 PM 17.6 °F 8.2 °F 8.6 °F 68% 30.27 in 7.0 mi NNE 6.9 mph - N/A   Overcast
5:45 PM 17.6 °F 8.2 °F 8.6 °F 68% 30.24 in 5.0 mi NNE 6.9 mph - N/A Snow Light Snow
6:45 PM 17.6 °F 6.4 °F 10.4 °F 73% 30.22 in 10.0 mi NNE 9.2 mph - N/A   Overcast
7:45 PM 17.6 °F 8.2 °F 8.6 °F 68% 30.21 in 10.0 mi North 6.9 mph - N/A   Overcast
8:15 PM 19.4 °F 10.4 °F 10.4 °F 68% 30.20 in 7.0 mi North 6.9 mph - N/A   Overcast
8:35 PM 19.4 °F 10.4 °F 10.4 °F 68% 30.20 in 10.0 mi North 6.9 mph - N/A   Overcast
8:45 PM 17.6 °F 6.4 °F 10.4 °F 73% 30.19 in 10.0 mi North 9.2 mph - N/A   Overcast
8:55 PM 19.4 °F 9.5 °F 10.4 °F 68% 30.18 in 10.0 mi North 8.1 mph - N/A   Overcast
9:15 PM 19.4 °F 9.5 °F 12.2 °F 74% 30.18 in 10.0 mi North 8.1 mph - N/A   Overcast
9:35 PM 19.4 °F 8.6 °F 12.2 °F 74% 30.18 in 10.0 mi North 9.2 mph - N/A   Overcast
9:55 PM 19.4 °F 7.2 °F 12.2 °F 74% 30.17 in 10.0 mi North 11.5 mph 16.1 mph N/A   Overcast
10:15 PM 19.4 °F 9.5 °F 12.2 °F 74% 30.17 in 10.0 mi North 8.1 mph - N/A   Overcast
10:35 PM 19.4 °F 8.6 °F 12.2 °F 74% 30.17 in 10.0 mi North 9.2 mph 16.1 mph N/A   Overcast
10:55 PM 19.4 °F 7.2 °F 12.2 °F 74% 30.17 in 4.0 mi North 11.5 mph - N/A Snow Light Snow
11:15 PM 19.4 °F 9.5 °F 14.0 °F 80% 30.16 in 2.0 mi North 8.1 mph - N/A Snow Light Snow
11:35 PM 19.4 °F 6.0 °F 14.0 °F 80% 30.15 in 4.0 mi North 13.8 mph 19.6 mph N/A Snow Light Snow
11:55 PM 19.4 °F 6.6 °F 14.0 °F 80% 30.14 in 5.0 mi North 12.7 mph 19.6 mph N/A   Haze